STARLINK-5766, 56025

Orbit data source: Space-Track

STARLINK-5766, 56025 is a payload satellite owned by SpaceX/Seattle (US) in LEO that was launched on Fri, 24 Mar 2023 UTC via an FALCON 9 launch vehicle from the Air Force Eastern Test Range (AFETR). Payload-class satellites include a variety of spacecraft equipped with specific instruments for various scientific and technological missions. These include communications satellites like Starlink; space stations such as the ISS; scientific satellites like the Hubble; Earth observation satellites from companies like Planet Labs, Umbra, and HawkEye 360; GPS; miniature CubeSats for education and research; and military/defense satellites.

Loading next visibility...
Identifier
56025, 2023-042AR
Orbit
LEO
Country
Flag of USUS
Related business
Manufacturer
SpaceX/Seattle
Mission
Operational Commercial Communications
Bus & Motor
STARLINK, Unknown motor
Mass
305 kg wet, ~290 kg dry
Launch date (UTC)
2023-03-24 (3 years ago)
Launch vehicle
FALCON 9
Launch site
Air Force Eastern Test Range (AFETR)
Object type
Payload
Rocket body
Debris
Shape & HBR
Box + 1 Pan, 10.1 m
Radar Cross Section
11.087 m², Large (>1 m²)

Expand to show TLE details & history
Last TLE update: 2 days ago

TLE from 2 days ago
0 STARLINK-5766
1 56025U 23042AR  26171.03635247  .00000946  00000-0  43922-4 0  9999
2 56025  43.0039 187.6015 0001945 287.3082  72.7556 15.27577298178681
Epoch: 2026-06-20T00:52Z
TLE epoch observation values (Epoch: 2026-06-20T00:52:20.853Z)
Latitude
-0.00007°
Longitude
-93.74221°
Altitude
482.438 km
Speed
7.626 km/s
True Right ascension
12h 30m 24s
True Declination
0° 00' 00"
Sunlit
Object was in daylight at epoch
Visualization orbit readout
Latitude
Unknown
Longitude
Unknown
Altitude
Unknown
Speed
Unknown
Apparent Right ascension
Unknown
Apparent Declination
Unknown
Sunlit
N/A
Visualization observer readout
Local Sidereal Time
21:28:12
Azimuth
Unknown
Elevation
Unknown
Doppler factor
Unknown
Orbital elements
Apogee altitude
486.337 km
Perigee altitude
483.667 km
Semi-major axis
6,863.139 km
Eccentricity
0.00019
Inclination
43.0039°
RAAN
187.6015°
Arg. of periapsis
287.3082°
True anomaly
72.77689°
Mean anomaly
72.7556°
Eccentric anomaly
72.76624°
Mean motion
3.81732 °/min
Orbital period
94.31 mins
BSTAR
0.000043922
Loading maneuver chart data...
Computing Atmospheric mass density...
Loading historical data...
Loading historical data...
Loading historical data...
Loading historical data...
Loading historical data...
Loading historical data...
Loading historical data...

Documentation

Showing up to 5 results
|